Change the Weather History Date:

Wednesday, August 21, 2013

  Actual Average Record
Temperature  
Mean Temperature 76 °F 67 °F  
Max Temperature 87 °F 77 °F 99 °F (1955)
Min Temperature 65 °F 57 °F 39 °F (2004)
Degree Days  
Heating Degree Days 0 1  
Month to date heating degree days 18 21  
Since 1 June heating degree days 112 136  
Since 1 July heating degree days 40 44  
Cooling Degree Days 11 3  
Month to date cooling degree days 51 81  
Year to date cooling degree days 392 332  
Since 1 June cooling degree days 354 314  
Growing Degree Days 26 (Base 50)    
Moisture  
Dew Point 68 °F    
Average Humidity 80    
Maximum Humidity 100    
Minimum Humidity 59    
Precipitation  
Precipitation 1.63 in 0.10 in 2.57 in (1983)
Month to date precipitation 2.37 2.36  
Year to date precipitation 23.31 19.39  
Snow  
Snow 0.00 in 0.00 in 0.00 in ()
Month to date snowfall 0.0 0.0  
Since 1 June snowfall 0.0 0.0  
Since 1 July snowfall 0.0 0.0  
Snow Depth 0.00 in    
Sea Level Pressure  
Sea Level Pressure 29.95 in    
Wind  
Wind Speed 10 mph (SSW)    
Max Wind Speed 41 mph    
Max Gust Speed 62 mph    
Visibility 7 miles    
Events Rain , Thunderstorm    
T = Trace of Precipitation, MM = Missing Value Source: NWS Daily Summary

Daily Weather History Graph

Daily Weather History Graph

Search for Another Location

Airport or City:

Trip Planner

Search our weather history database for the weather conditions in past years. The results will help you decide how hot, cold, wet, or windy it might be!

Date:

Astronomy

Aug. 21, 2013 Rise Set
Actual Time 6:02 AM CDT 7:47 PM CDT
Civil Twilight 5:31 AM CDT 8:18 PM CDT
Nautical Twilight 4:53 AM CDT 8:56 PM CDT
Astronomical Twilight 4:13 AM CDT 9:36 PM CDT
Moon 7:50 PM CDT (8/21) 6:46 AM CDT (8/21)
Length of Visible Light 14h 46m
Length of Day
13h 45m
Waxing Gibbous, 99% of the Moon is Illuminated
Aug 21
Waxing Gibbous
Aug 28
Last Quarter
Sep 5
New
Sep 12
First Quarter
Sep 19
Full

Hourly Weather History & Observations

Time (CDT) Temp. Heat Index Dew Point Humidity Pressure Visibility Wind Dir Wind Speed Gust Speed Precip Events Conditions
12:53 AM 72.0 °F - 64.9 °F 78% 29.99 in 8.0 mi South 5.8 mph - N/A   Scattered Clouds
1:53 AM 73.0 °F - 64.9 °F 76% 29.98 in 9.0 mi SSW 6.9 mph - N/A   Mostly Cloudy
2:53 AM 73.0 °F - 64.9 °F 76% 29.96 in 9.0 mi SSW 8.1 mph - N/A   Partly Cloudy
3:53 AM 73.0 °F - 66.0 °F 79% 29.97 in 8.0 mi SSW 8.1 mph - N/A   Overcast
4:53 AM 72.0 °F - 66.9 °F 84% 29.97 in 3.0 mi SW 10.4 mph - 0.02 in Rain Rain
4:58 AM 71.1 °F - 66.9 °F 87% 29.98 in 1.8 mi SW 11.5 mph 17.3 mph 0.04 in Rain Heavy Rain
5:09 AM 70.0 °F - 68.0 °F 93% 29.98 in 0.8 mi SW 9.2 mph 19.6 mph 0.26 in Rain , Thunderstorm Heavy Thunderstorms and Rain
5:19 AM 71.1 °F - 68.0 °F 90% 29.98 in 0.8 mi South 13.8 mph - 0.72 in Rain , Thunderstorm Heavy Thunderstorms and Rain
5:31 AM 73.0 °F - 66.9 °F 81% 29.98 in 2.0 mi South 16.1 mph 25.3 mph 1.04 in Rain , Thunderstorm Light Thunderstorms and Rain
5:36 AM 73.9 °F - 68.0 °F 82% 29.98 in 9.0 mi SSW 11.5 mph 21.9 mph 1.04 in Rain , Thunderstorm Light Thunderstorms and Rain
5:53 AM 71.1 °F - 68.0 °F 90% 29.96 in 8.0 mi South 11.5 mph - 1.04 in Thunderstorm Thunderstorm
6:05 AM 71.1 °F - 68.0 °F 90% 29.98 in 7.0 mi South 9.2 mph - N/A Thunderstorm Overcast
6:24 AM 70.0 °F - 68.0 °F 93% 29.98 in 5.0 mi South 10.4 mph - N/A   Mostly Cloudy
6:53 AM 71.1 °F - 66.9 °F 87% 29.97 in 5.0 mi South 10.4 mph - N/A   Clear
7:53 AM 71.1 °F - 68.0 °F 90% 29.98 in 4.0 mi SSW 5.8 mph - N/A   Clear
8:53 AM 75.0 °F - 68.0 °F 79% 29.98 in 6.0 mi South 10.4 mph - N/A   Haze
9:53 AM 77.0 °F - 69.1 °F 76% 29.97 in 6.0 mi South 8.1 mph - N/A   Haze
10:53 AM 79.0 °F - 70.0 °F 74% 29.96 in 7.0 mi South 10.4 mph - N/A   Clear
11:53 AM 82.0 °F 85.9 °F 70.0 °F 67% 29.95 in 7.0 mi SSW 11.5 mph - N/A   Clear
12:53 PM 84.0 °F 89.6 °F 72.0 °F 67% 29.94 in 8.0 mi SSW 10.4 mph - N/A   Clear
1:53 PM 84.9 °F 90.7 °F 72.0 °F 65% 29.92 in 8.0 mi SSW 10.4 mph - N/A   Clear
2:53 PM 86.0 °F 92.2 °F 72.0 °F 63% 29.89 in 9.0 mi SSW 15.0 mph 21.9 mph N/A   Clear
3:53 PM 87.1 °F 93.6 °F 72.0 °F 61% 29.87 in 9.0 mi SSW 17.3 mph 24.2 mph N/A   Clear
4:53 PM 86.0 °F 92.2 °F 72.0 °F 63% 29.86 in 9.0 mi South 16.1 mph 24.2 mph N/A   Clear
5:53 PM 84.9 °F 90.7 °F 72.0 °F 65% 29.84 in 9.0 mi SSW 9.2 mph 18.4 mph N/A   Mostly Cloudy
6:53 PM 82.9 °F 88.0 °F 72.0 °F 69% 29.86 in 9.0 mi SSW 5.8 mph - N/A   Mostly Cloudy
7:03 PM 82.9 °F 87.5 °F 71.1 °F 67% 29.87 in 9.0 mi SSW 5.8 mph - N/A Thunderstorm Mostly Cloudy
7:18 PM 84.0 °F 89.0 °F 71.1 °F 65% 29.90 in 10.0 mi SW 11.5 mph - N/A   Mostly Cloudy
7:53 PM 84.0 °F 89.0 °F 71.1 °F 65% 29.91 in 10.0 mi WSW 10.4 mph - N/A   Overcast
8:02 PM 80.1 °F 82.3 °F 66.9 °F 64% 29.97 in 10.0 mi WNW 40.3 mph 62.1 mph 0.00 in Rain , Thunderstorm Light Rain
8:11 PM 70.0 °F - 66.0 °F 87% 30.02 in 2.0 mi NNW 18.4 mph 62.1 mph 0.00 in Rain , Thunderstorm Heavy Thunderstorms and Rain
8:17 PM 69.1 °F - 66.9 °F 93% 30.02 in 1.2 mi NNW 23.0 mph 31.1 mph 0.20 in Rain , Thunderstorm Heavy Thunderstorms and Rain
8:30 PM 68.0 °F - 66.0 °F 93% 29.98 in 2.0 mi North 10.4 mph - 0.46 in Rain , Thunderstorm Heavy Thunderstorms and Rain
8:39 PM 68.0 °F - 66.0 °F 93% 29.99 in 8.0 mi NNE 9.2 mph - 0.47 in Rain , Thunderstorm Light Thunderstorms and Rain
8:53 PM 68.0 °F - 66.0 °F 93% 30.01 in 5.0 mi SSE 11.5 mph - 0.50 in Rain , Thunderstorm Thunderstorms and Rain
9:12 PM 68.0 °F - 66.9 °F 96% 29.99 in 5.0 mi South 13.8 mph - 0.06 in Rain , Thunderstorm Rain
9:27 PM 68.0 °F - 66.9 °F 96% 30.00 in 10.0 mi South 5.8 mph - 0.07 in Rain Light Rain
9:53 PM 68.0 °F - 66.0 °F 93% 29.96 in 10.0 mi South 5.8 mph - 0.07 in   Clear
10:53 PM 66.9 °F - 66.0 °F 97% 29.97 in 10.0 mi North 3.5 mph - N/A   Clear
11:53 PM 66.0 °F - 64.9 °F 96% 29.98 in 7.0 mi WSW 4.6 mph - N/A   Clear